CLUSTER II-FM8 (TANGO)

Last updated on Thu Jul 03 2025 00:03:31 GMT+0000 (Coordinated Universal Time)

1 26464U 00045B 25184.43109943 .00002436 00000+0 00000+0 0 9997 2 26464 144.9578 13.1281 8420925 228.3234 359.4475 0.44419533 18753
UTC large
Height (km)
Speed (km/s)
/
Latitude / Longitude
Inclination (degrees)
Orbital Period (minutes)
Azimuth
Elevation
Range (km)
Doppler Factor

Next 0 passes for location: London (51.5072 / 0.1276)

Sorry there are no passes over London.